TimeCST,TemperatureF,Dew PointF,Humidity,Sea Level PressureIn,VisibilityMPH,Wind Direction,Wind SpeedMPH,Gust SpeedMPH,PrecipitationIn,Events,Conditions,WindDirDegrees,DateUTC
12:52 AM,43.0,39.0,86,30.03,10.0,SSW,5.8,-,N/A,,Mostly Cloudy,200,2011-12-22 06:52:00
1:52 AM,44.1,39.9,85,30.04,10.0,South,3.5,-,N/A,,Overcast,190,2011-12-22 07:52:00
2:52 AM,44.1,39.9,85,30.05,10.0,Calm,Calm,-,N/A,,Overcast,0,2011-12-22 08:52:00
3:52 AM,44.1,41.0,89,30.04,10.0,Calm,Calm,-,N/A,,Overcast,0,2011-12-22 09:52:00
4:52 AM,42.1,39.0,89,30.01,10.0,ENE,3.5,-,N/A,,Mostly Cloudy,60,2011-12-22 10:52:00
5:01 AM,42.8,39.2,87,30.00,10.0,ENE,3.5,-,N/A,,Scattered Clouds,70,2011-12-22 11:01:00
5:32 AM,39.2,37.4,93,29.98,10.0,North,4.6,-,N/A,,Mostly Cloudy,10,2011-12-22 11:32:00
5:52 AM,39.0,37.9,96,30.03,10.0,Calm,Calm,-,N/A,,Mostly Cloudy,0,2011-12-22 11:52:00
6:52 AM,42.1,39.9,92,30.06,10.0,Calm,Calm,-,N/A,,Overcast,0,2011-12-22 12:52:00
8:52 AM,43.0,39.9,89,30.10,10.0,SW,3.5,-,N/A,,Overcast,220,2011-12-22 14:52:00
9:52 AM,44.1,41.0,89,30.12,10.0,Calm,Calm,-,N/A,,Overcast,0,2011-12-22 15:52:00
10:52 AM,44.1,41.0,89,30.09,10.0,Calm,Calm,-,N/A,,Overcast,0,2011-12-22 16:52:00
11:52 AM,45.0,41.0,86,30.06,10.0,Calm,Calm,-,N/A,,Overcast,0,2011-12-22 17:52:00
12:52 PM,45.0,41.0,86,30.06,9.0,Calm,Calm,-,0.00,Rain,Light Rain,0,2011-12-22 18:52:00
1:34 PM,44.6,42.8,93,30.02,10.0,NNW,4.6,-,0.01,Rain,Light Rain,340,2011-12-22 19:34:00
1:52 PM,45.0,42.1,90,30.02,10.0,NNW,6.9,-,0.01,,Overcast,340,2011-12-22 19:52:00
2:41 PM,44.6,41.0,87,30.03,10.0,NW,8.1,-,N/A,,Overcast,310,2011-12-22 20:41:00
2:52 PM,44.1,41.0,89,30.05,10.0,NW,9.2,-,0.00,Rain,Light Rain,310,2011-12-22 20:52:00
3:34 PM,44.6,41.0,87,30.05,9.0,NNW,6.9,-,0.03,Rain,Light Rain,330,2011-12-22 21:34:00
3:52 PM,44.1,41.0,89,30.05,10.0,NNW,4.6,-,0.03,,Overcast,340,2011-12-22 21:52:00
5:37 PM,42.8,39.2,87,30.12,10.0,NW,5.8,-,N/A,,Mostly Cloudy,320,2011-12-22 23:37:00
5:52 PM,43.0,39.0,86,30.14,10.0,NW,8.1,-,N/A,,Overcast,320,2011-12-22 23:52:00
6:52 PM,42.1,37.0,82,30.16,9.0,NNW,10.4,-,N/A,,Overcast,340,2011-12-23 00:52:00
7:52 PM,41.0,37.0,86,30.20,8.0,NNW,10.4,-,0.01,,Overcast,340,2011-12-23 01:52:00
8:47 PM,39.2,35.6,87,30.21,9.0,NNW,13.8,-,N/A,,Overcast,340,2011-12-23 02:47:00
9:10 PM,39.2,35.6,87,30.21,7.0,NNW,12.7,-,N/A,,Overcast,330,2011-12-23 03:10:00
9:20 PM,39.2,35.6,87,30.21,7.0,NNW,11.5,-,N/A,,Overcast,340,2011-12-23 03:20:00
9:52 PM,39.0,34.0,82,30.22,7.0,North,11.5,-,N/A,,Overcast,350,2011-12-23 03:52:00
10:52 PM,39.0,34.0,82,30.25,7.0,NNW,8.1,-,N/A,,Overcast,340,2011-12-23 04:52:00
11:42 PM,39.2,35.6,87,30.27,7.0,NW,5.8,-,N/A,,Overcast,320,2011-12-23 05:42:00
11:52 PM,39.0,35.1,86,30.27,7.0,NNW,6.9,-,N/A,,Overcast,330,2011-12-23 05:52:00